| time (UTC) | temp C | wind direction | speed KPH | gust KPH | rain 1hr cm | rain 24hr cm | rain mn cm | humidity % | barometer mb |
| 20260903011531 | 30 | 261 | 0.0 | 0.0 | 0.00 | 0.00 | 0.00 | 70 | 1012.7 |
| 20260903011025 | 30 | 261 | 0.0 | 0.0 | 0.00 | 0.00 | 0.00 | 68 | 1012.9 |
| 20260903010520 | 30 | 261 | 0.0 | 0.0 | 0.00 | 0.00 | 0.00 | 67 | 1012.5 |
| 20260903010020 | 30 | 261 | 0.0 | 0.0 | 0.00 | 0.00 | 0.00 | 67 | 1012.5 |
| 20260903005519 | 30 | 261 | 0.0 | 0.0 | 0.00 | 0.00 | 0.00 | 66 | 1012.5 |
| 20260903005015 | 30 | 261 | 0.0 | 1.6 | 0.00 | 0.00 | 0.00 | 65 | 1012.6 |
| 20260903004509 | 30 | 261 | 0.0 | 0.0 | 0.00 | 0.00 | 0.00 | 65 | 1012.5 |
| 20260903004005 | 31 | 260 | 0.0 | 0.0 | 0.00 | 0.00 | 0.00 | 64 | 1012.4 |
| 20260903003500 | 31 | 260 | 0.0 | 0.0 | 0.00 | 0.00 | 0.00 | 63 | 1012.5 |
| 20260903002955 | 31 | 261 | 0.0 | 0.0 | 0.00 | 0.00 | 0.00 | 63 | 1012.3 |
| 20260903002455 | 31 | 261 | 0.0 | 1.6 | 0.00 | 0.00 | 0.00 | 62 | 1012.5 |
| 20260903001954 | 31 | 261 | 0.0 | 1.6 | 0.00 | 0.00 | 0.00 | 61 | 1012.4 |
| 20260903001450 | 32 | 261 | 0.0 | 1.6 | 0.00 | 0.00 | 0.00 | 61 | 1012.1 |
| 20260903000944 | 32 | 261 | 0.0 | 1.6 | 0.00 | 0.00 | 0.00 | 60 | 1012.2 |
| 20260903000439 | 32 | 264 | 0.0 | 1.6 | 0.00 | 0.00 | 0.00 | 59 | 1012.3 |
| 20260902235938 | 32 | 261 | 1.6 | 3.2 | 0.00 | 0.00 | 0.00 | 59 | 1012.2 |
| 20260902235433 | 32 | 263 | 1.6 | 1.6 | 0.00 | 0.00 | 0.00 | 58 | 1012.2 |
| 20260902234932 | 32 | 251 | 4.8 | 4.8 | 0.00 | 0.00 | 0.00 | 56 | 1012.4 |
| 20260902234428 | 33 | 263 | 4.8 | 8.0 | 0.00 | 0.00 | 0.00 | 57 | 1012.2 |
| 20260902233926 | 33 | 266 | 1.6 | 1.6 | 0.00 | 0.00 | 0.00 | 57 | 1012.3 |
| 20260902233421 | 33 | 273 | 1.6 | 3.2 | 0.00 | 0.00 | 0.00 | 57 | 1012.4 |
| 20260902232920 | 33 | 241 | 1.6 | 3.2 | 0.00 | 0.00 | 0.00 | 56 | 1012.1 |
| 20260902232415 | 33 | 285 | 0.0 | 1.6 | 0.00 | 0.00 | 0.00 | 56 | 1012.3 |
| 20260902231909 | 33 | 248 | 1.6 | 3.2 | 0.00 | 0.00 | 0.00 | 55 | 1012.2 |
| 20260902231404 | 33 | 270 | 1.6 | 1.6 | 0.00 | 0.00 | 0.00 | 54 | 1012.5 |
| 20260902230859 | 34 | 224 | 3.2 | 3.2 | 0.00 | 0.00 | 0.00 | 53 | 1012.3 |
| 20260902230358 | 34 | 268 | 1.6 | 1.6 | 0.00 | 0.00 | 0.00 | 52 | 1012.4 |
| 20260902225852 | 34 | 248 | 4.8 | 8.0 | 0.00 | 0.00 | 0.00 | 52 | 1012.5 |
| 20260902225347 | 33 | 251 | 1.6 | 3.2 | 0.00 | 0.00 | 0.00 | 54 | 1012.4 |
| 20260902224846 | 33 | 269 | 0.0 | 1.6 | 0.00 | 0.00 | 0.00 | 55 | 1012.4 |
| 20260902224341 | 33 | 303 | 1.6 | 1.6 | 0.00 | 0.00 | 0.00 | 53 | 1012.6 |
| 20260902223838 | 34 | 264 | 0.0 | 1.6 | 0.00 | 0.00 | 0.00 | 53 | 1012.4 |
| 20260902223337 | 34 | 305 | 0.0 | 3.2 | 0.00 | 0.00 | 0.00 | 52 | 1012.4 |
| 20260902222831 | 34 | 291 | 1.6 | 3.2 | 0.00 | 0.00 | 0.00 | 53 | 1012.4 |
| 20260902222330 | 34 | 257 | 1.6 | 3.2 | 0.00 | 0.00 | 0.00 | 52 | 1012.6 |
| 20260902221825 | 35 | 268 | 1.6 | 1.6 | 0.00 | 0.00 | 0.00 | 50 | 1012.5 |
| 20260902221324 | 35 | 295 | 0.0 | 8.0 | 0.00 | 0.00 | 0.00 | 50 | 1012.7 |
| 20260902220820 | 35 | 249 | 1.6 | 3.2 | 0.00 | 0.00 | 0.00 | 52 | 1012.6 |
| 20260902220319 | 35 | 276 | 1.6 | 4.8 | 0.00 | 0.00 | 0.00 | 51 | 1012.5 |
| 20260902215814 | 35 | 301 | 1.6 | 4.8 | 0.00 | 0.00 | 0.00 | 51 | 1012.6 |
| 20260902215309 | 35 | 277 | 0.0 | 4.8 | 0.00 | 0.00 | 0.00 | 50 | 1012.4 |
| 20260902214805 | 35 | 248 | 3.2 | 8.0 | 0.00 | 0.00 | 0.00 | 50 | 1012.5 |
| 20260902214304 | 35 | 305 | 0.0 | 1.6 | 0.00 | 0.00 | 0.00 | 51 | 1012.5 |
| 20260902213759 | 35 | 271 | 0.0 | 8.0 | 0.00 | 0.00 | 0.00 | 51 | 1012.7 |
| 20260902213254 | 35 | 274 | 1.6 | 8.0 | 0.00 | 0.00 | 0.00 | 50 | 1012.5 |
| 20260902212753 | 35 | 269 | 0.0 | 3.2 | 0.00 | 0.00 | 0.00 | 49 | 1012.5 |
| 20260902212250 | 35 | 312 | 3.2 | 3.2 | 0.00 | 0.00 | 0.00 | 48 | 1012.7 |
| 20260902211746 | 35 | 300 | 1.6 | 3.2 | 0.00 | 0.00 | 0.00 | 50 | 1012.6 |
| 20260902211242 | 35 | 240 | 1.6 | 3.2 | 0.00 | 0.00 | 0.00 | 49 | 1012.6 |
| 20260902210741 | 36 | 268 | 1.6 | 4.8 | 0.00 | 0.00 | 0.00 | 48 | 1012.8 |
| 20260902210237 | 35 | 287 | 3.2 | 4.8 | 0.00 | 0.00 | 0.00 | 48 | 1012.7 |
| 20260902205735 | 35 | 273 | 3.2 | 4.8 | 0.00 | 0.00 | 0.00 | 49 | 1012.7 |
| 20260902205230 | 35 | 260 | 1.6 | 1.6 | 0.00 | 0.00 | 0.00 | 50 | 1012.8 |
| 20260902204725 | 35 | 281 | 0.0 | 3.2 | 0.00 | 0.00 | 0.00 | 49 | 1012.6 |
| 20260902204215 | 35 | 261 | 4.8 | 4.8 | 0.00 | 0.00 | 0.00 | 48 | 1013.1 |
| 20260902203710 | 35 | 228 | 1.6 | 3.2 | 0.00 | 0.00 | 0.00 | 48 | 1013.1 |
| 20260902203210 | 35 | 344 | 3.2 | 3.2 | 0.00 | 0.00 | 0.00 | 48 | 1013.0 |
| 20260902202704 | 35 | 249 | 1.6 | 3.2 | 0.00 | 0.00 | 0.00 | 49 | 1012.9 |
| 20260902202201 | 35 | 264 | 4.8 | 9.7 | 0.00 | 0.00 | 0.00 | 49 | 1013.0 |
| 20260902201657 | 35 | 300 | 1.6 | 3.2 | 0.00 | 0.00 | 0.00 | 49 | 1012.9 |
| 20260902201156 | 35 | 213 | 3.2 | 3.2 | 0.00 | 0.00 | 0.00 | 54 | 1012.8 |
| 20260902200651 | 35 | 273 | 0.0 | 1.6 | 0.00 | 0.00 | 0.00 | 51 | 1013.0 |
| 20260902200147 | 35 | 300 | 1.6 | 1.6 | 0.00 | 0.00 | 0.00 | 50 | 1013.1 |
| 20260902195642 | 35 | 235 | 3.2 | 3.2 | 0.00 | 0.00 | 0.00 | 49 | 1013.1 |
| 20260902195136 | 35 | 235 | 4.8 | 11.3 | 0.00 | 0.00 | 0.00 | 47 | 1013.0 |
| 20260902194635 | 36 | 324 | 3.2 | 4.8 | 0.00 | 0.00 | 0.00 | 47 | 1013.1 |
| 20260902194131 | 35 | 269 | 0.0 | 4.8 | 0.00 | 0.00 | 0.00 | 48 | 1013.2 |
| 20260902193626 | 35 | 292 | 0.0 | 3.2 | 0.00 | 0.00 | 0.00 | 51 | 1013.5 |
| 20260902193121 | 35 | 274 | 0.0 | 3.2 | 0.00 | 0.00 | 0.00 | 50 | 1013.5 |
| 20260902192620 | 35 | 262 | 1.6 | 4.8 | 0.00 | 0.00 | 0.00 | 48 | 1013.7 |
| 20260902192118 | 35 | 281 | 3.2 | 3.2 | 0.00 | 0.00 | 0.00 | 48 | 1013.5 |
| 20260902191614 | 36 | 257 | 4.8 | 8.0 | 0.00 | 0.00 | 0.00 | 47 | 1013.8 |
| 20260902191108 | 36 | 266 | 1.6 | 9.7 | 0.00 | 0.00 | 0.00 | 47 | 1013.6 |
| 20260902190604 | 36 | 294 | 3.2 | 4.8 | 0.00 | 0.00 | 0.00 | 46 | 1013.8 |
| 20260902190059 | 35 | 259 | 1.6 | 8.0 | 0.00 | 0.00 | 0.00 | 46 | 1013.8 |
| 20260902185554 | 35 | 232 | 3.2 | 3.2 | 0.00 | 0.00 | 0.00 | 47 | 1013.8 |
| 20260902185050 | 35 | 253 | 1.6 | 4.8 | 0.00 | 0.00 | 0.00 | 48 | 1013.8 |
| 20260902184545 | 35 | 313 | 4.8 | 4.8 | 0.00 | 0.00 | 0.00 | 51 | 1013.9 |
| 20260902184040 | 35 | 237 | 4.8 | 9.7 | 0.00 | 0.00 | 0.00 | 47 | 1014.1 |
| 20260902183537 | 35 | 289 | 4.8 | 4.8 | 0.00 | 0.00 | 0.00 | 47 | 1014.0 |
| 20260902183033 | 35 | 286 | 0.0 | 8.0 | 0.00 | 0.00 | 0.00 | 51 | 1014.0 |
| 20260902182529 | 34 | 309 | 3.2 | 4.8 | 0.00 | 0.00 | 0.00 | 53 | 1014.0 |
| 20260902182025 | 35 | 287 | 1.6 | 4.8 | 0.00 | 0.00 | 0.00 | 51 | 1014.1 |
| 20260902181521 | 35 | 299 | 1.6 | 4.8 | 0.00 | 0.00 | 0.00 | 52 | 1014.3 |
| 20260902181015 | 35 | 282 | 0.0 | 1.6 | 0.00 | 0.00 | 0.00 | 53 | 1014.3 |
| 20260902180515 | 35 | 327 | 3.2 | 4.8 | 0.00 | 0.00 | 0.00 | 52 | 1014.4 |
| 20260902180011 | 34 | 295 | 0.0 | 1.6 | 0.00 | 0.00 | 0.00 | 53 | 1014.6 |
| 20260902175510 | 34 | 287 | 3.2 | 9.7 | 0.00 | 0.00 | 0.00 | 53 | 1014.5 |
| 20260902175007 | 35 | 277 | 1.6 | 4.8 | 0.00 | 0.00 | 0.00 | 52 | 1014.6 |
| 20260902174503 | 35 | 235 | 3.2 | 4.8 | 0.00 | 0.00 | 0.00 | 51 | 1014.5 |
| 20260902173958 | 35 | 271 | 0.0 | 4.8 | 0.00 | 0.00 | 0.00 | 51 | 1014.5 |
| 20260902173457 | 35 | 334 | 3.2 | 8.0 | 0.00 | 0.00 | 0.00 | 52 | 1014.8 |
| 20260902172953 | 35 | 283 | 1.6 | 8.0 | 0.00 | 0.00 | 0.00 | 52 | 1014.7 |
| 20260902172452 | 34 | 279 | 0.0 | 3.2 | 0.00 | 0.00 | 0.00 | 52 | 1014.8 |
| 20260902171947 | 34 | 235 | 4.8 | 8.0 | 0.00 | 0.00 | 0.00 | 51 | 1014.7 |
| 20260902171443 | 34 | 279 | 0.0 | 4.8 | 0.00 | 0.00 | 0.00 | 52 | 1014.6 |
| 20260902170939 | 34 | 249 | 4.8 | 4.8 | 0.00 | 0.00 | 0.00 | 51 | 1014.8 |
| 20260902170434 | 34 | 292 | 3.2 | 9.7 | 0.00 | 0.00 | 0.00 | 50 | 1014.9 |
| 20260902165929 | 34 | 277 | 4.8 | 8.0 | 0.00 | 0.00 | 0.00 | 51 | 1014.8 |
| 20260902165429 | 34 | 284 | 1.6 | 8.0 | 0.00 | 0.00 | 0.00 | 52 | 1015.0 |
| 20260902164929 | 34 | 234 | 3.2 | 9.7 | 0.00 | 0.00 | 0.00 | 53 | 1015.0 |
| 20260902164424 | 34 | 267 | 1.6 | 8.0 | 0.00 | 0.00 | 0.00 | 52 | 1014.8 |
| 20260902163923 | 33 | 260 | 1.6 | 9.7 | 0.00 | 0.00 | 0.00 | 53 | 1015.0 |
| 20260902163419 | 33 | 298 | 1.6 | 3.2 | 0.00 | 0.00 | 0.00 | 53 | 1015.0 |
| 20260902162916 | 33 | 240 | 3.2 | 4.8 | 0.00 | 0.00 | 0.00 | 53 | 1014.9 |
| 20260902162412 | 33 | 279 | 1.6 | 3.2 | 0.00 | 0.00 | 0.00 | 54 | 1015.1 |
| 20260902161906 | 33 | 282 | 1.6 | 3.2 | 0.00 | 0.00 | 0.00 | 54 | 1015.2 |
| 20260902161401 | 33 | 290 | 1.6 | 4.8 | 0.00 | 0.00 | 0.00 | 56 | 1015.2 |
| 20260902160857 | 33 | 292 | 0.0 | 1.6 | 0.00 | 0.00 | 0.00 | 55 | 1015.1 |
| 20260902160353 | 33 | 303 | 1.6 | 8.0 | 0.00 | 0.00 | 0.00 | 54 | 1015.2 |
| 20260902155850 | 33 | 269 | 1.6 | 3.2 | 0.00 | 0.00 | 0.00 | 55 | 1015.3 |
| 20260902155350 | 33 | 268 | 0.0 | 3.2 | 0.00 | 0.00 | 0.00 | 57 | 1015.2 |
| 20260902154845 | 33 | 278 | 1.6 | 8.0 | 0.00 | 0.00 | 0.00 | 57 | 1015.4 |
| 20260902154341 | 33 | 319 | 3.2 | 4.8 | 0.00 | 0.00 | 0.00 | 58 | 1015.4 |
| 20260902153839 | 33 | 272 | 1.6 | 4.8 | 0.00 | 0.00 | 0.00 | 58 | 1015.5 |
| 20260902153338 | 33 | 230 | 1.6 | 3.2 | 0.00 | 0.00 | 0.00 | 57 | 1015.3 |
| 20260902152835 | 33 | 304 | 1.6 | 4.8 | 0.00 | 0.00 | 0.00 | 58 | 1015.4 |
| 20260902152330 | 33 | 324 | 3.2 | 3.2 | 0.00 | 0.00 | 0.00 | 59 | 1015.5 |
| 20260902151826 | 33 | 251 | 1.6 | 1.6 | 0.00 | 0.00 | 0.00 | 59 | 1015.6 |
| 20260902151321 | 33 | 288 | 1.6 | 3.2 | 0.00 | 0.00 | 0.00 | 60 | 1015.4 |
| 20260902150815 | 32 | 289 | 0.0 | 3.2 | 0.00 | 0.00 | 0.00 | 61 | 1015.6 |
| 20260902150312 | 32 | 299 | 0.0 | 1.6 | 0.00 | 0.00 | 0.00 | 61 | 1015.6 |
| 20260902145811 | 32 | 252 | 3.2 | 3.2 | 0.00 | 0.00 | 0.00 | 60 | 1015.5 |
| 20260902145306 | 32 | 260 | 1.6 | 4.8 | 0.00 | 0.00 | 0.00 | 60 | 1015.6 |
| 20260902144802 | 32 | 307 | 0.0 | 3.2 | 0.00 | 0.00 | 0.00 | 60 | 1015.7 |
| 20260902144257 | 32 | 295 | 0.0 | 1.6 | 0.00 | 0.00 | 0.00 | 63 | 1015.4 |
| 20260902143752 | 32 | 261 | 0.0 | 3.2 | 0.00 | 0.00 | 0.00 | 62 | 1015.3 |
| 20260902143247 | 32 | 272 | 0.0 | 3.2 | 0.00 | 0.00 | 0.00 | 65 | 1015.5 |
| 20260902142743 | 31 | 277 | 0.0 | 3.2 | 0.00 | 0.00 | 0.00 | 65 | 1015.4 |
| 20260902142239 | 31 | 331 | 1.6 | 3.2 | 0.00 | 0.00 | 0.00 | 66 | 1015.4 |
| 20260902141738 | 31 | 251 | 0.0 | 1.6 | 0.00 | 0.00 | 0.00 | 69 | 1015.4 |
| 20260902141234 | 30 | 258 | 1.6 | 3.2 | 0.00 | 0.00 | 0.00 | 70 | 1015.7 |
| 20260902140729 | 30 | 223 | 1.6 | 3.2 | 0.00 | 0.00 | 0.00 | 72 | 1015.8 |
| 20260902140224 | 30 | 206 | 1.6 | 3.2 | 0.00 | 0.00 | 0.00 | 74 | 1015.8 |
| 20260902135723 | 30 | 224 | 1.6 | 1.6 | 0.00 | 0.00 | 0.00 | 73 | 1015.4 |
| 20260902135219 | 29 | 186 | 3.2 | 3.2 | 0.00 | 0.00 | 0.00 | 76 | 1015.6 |
| 20260902134719 | 29 | 227 | 1.6 | 3.2 | 0.00 | 0.00 | 0.00 | 74 | 1015.4 |
| 20260902134214 | 28 | 232 | 1.6 | 1.6 | 0.00 | 0.00 | 0.00 | 76 | 1015.7 |
| 20260902133709 | 28 | 247 | 1.6 | 3.2 | 0.00 | 0.00 | 0.00 | 76 | 1015.6 |
| 20260902133209 | 28 | 232 | 1.6 | 1.6 | 0.00 | 0.00 | 0.00 | 77 | 1015.5 |
| 20260902132704 | 28 | 235 | 0.0 | 3.2 | 0.00 | 0.00 | 0.00 | 77 | 1015.7 |
| 20260902132159 | 28 | 279 | 0.0 | 1.6 | 0.00 | 0.00 | 0.00 | 77 | 1015.7 |
| 20260902131654 | 28 | 239 | 0.0 | 1.6 | 0.00 | 0.00 | 0.00 | 78 | 1015.7 |
| 20260902131151 | 27 | 238 | 1.6 | 1.6 | 0.00 | 0.00 | 0.00 | 79 | 1015.6 |
| 20260902130646 | 27 | 234 | 1.6 | 1.6 | 0.00 | 0.00 | 0.00 | 80 | 1015.6 |
| 20260902130141 | 27 | 235 | 1.6 | 1.6 | 0.00 | 0.00 | 0.00 | 80 | 1015.6 |
| 20260902125637 | 27 | 264 | 1.6 | 1.6 | 0.00 | 0.00 | 0.00 | 80 | 1015.6 |
| 20260902125132 | 26 | 242 | 1.6 | 1.6 | 0.00 | 0.00 | 0.00 | 81 | 1015.3 |
| 20260902124629 | 26 | 248 | 1.6 | 1.6 | 0.00 | 0.00 | 0.00 | 81 | 1015.6 |
| 20260902124129 | 26 | 266 | 0.0 | 0.0 | 0.00 | 0.00 | 0.00 | 83 | 1015.5 |
| 20260902123625 | 25 | 255 | 0.0 | 0.0 | 0.00 | 0.00 | 0.00 | 85 | 1015.3 |
| 20260902123124 | 24 | 254 | 0.0 | 0.0 | 0.00 | 0.00 | 0.00 | 88 | 1015.5 |
| 20260902122619 | 23 | 256 | 0.0 | 0.0 | 0.00 | 0.00 | 0.00 | 91 | 1015.4 |
| 20260902122115 | 23 | 264 | 0.0 | 0.0 | 0.00 | 0.00 | 0.00 | 92 | 1015.5 |
| 20260902121615 | 23 | 265 | 0.0 | 0.0 | 0.00 | 0.00 | 0.00 | 93 | 1015.3 |
| 20260902121110 | 23 | 271 | 0.0 | 0.0 | 0.00 | 0.00 | 0.00 | 94 | 1015.4 |
| 20260902120606 | 23 | 270 | 0.0 | 0.0 | 0.00 | 0.00 | 0.00 | 94 | 1015.4 |
| 20260902115557 | 23 | 281 | 0.0 | 0.0 | 0.00 | 0.00 | 0.00 | 94 | 1015.4 |
| 20260902115053 | 22 | 281 | 0.0 | 0.0 | 0.00 | 0.00 | 0.00 | 95 | 1015.3 |
| 20260902114548 | 22 | 281 | 0.0 | 0.0 | 0.00 | 0.00 | 0.00 | 95 | 1015.2 |
| 20260902114048 | 22 | 282 | 0.0 | 0.0 | 0.00 | 0.00 | 0.00 | 95 | 1015.1 |
| 20260902113544 | 22 | 279 | 0.0 | 0.0 | 0.00 | 0.00 | 0.00 | 95 | 1014.9 |
| 20260902113039 | 22 | 293 | 0.0 | 0.0 | 0.00 | 0.00 | 0.00 | 95 | 1015.0 |
| 20260902112534 | 22 | 246 | 0.0 | 0.0 | 0.00 | 0.00 | 0.00 | 95 | 1015.0 |
| 20260902112031 | 22 | 246 | 0.0 | 0.0 | 0.00 | 0.00 | 0.00 | 95 | 1014.8 |
| 20260902111527 | 22 | 246 | 0.0 | 0.0 | 0.00 | 0.00 | 0.00 | 95 | 1015.0 |
| 20260902111022 | 22 | 246 | 0.0 | 0.0 | 0.00 | 0.00 | 0.00 | 95 | 1014.9 |
| 20260902110518 | 22 | 246 | 0.0 | 0.0 | 0.00 | 0.00 | 0.00 | 95 | 1015.1 |
| 20260902110014 | 22 | 246 | 0.0 | 0.0 | 0.00 | 0.00 | 0.00 | 95 | 1015.0 |
| 20260902105508 | 22 | 246 | 0.0 | 0.0 | 0.00 | 0.00 | 0.00 | 95 | 1014.8 |
| 20260902105008 | 22 | 246 | 0.0 | 0.0 | 0.00 | 0.00 | 0.00 | 94 | 1014.8 |
| 20260902104504 | 22 | 246 | 0.0 | 0.0 | 0.00 | 0.00 | 0.00 | 94 | 1015.2 |
| 20260902103958 | 22 | 246 | 0.0 | 0.0 | 0.00 | 0.00 | 0.00 | 94 | 1015.1 |
| 20260902103454 | 22 | 245 | 0.0 | 0.0 | 0.00 | 0.00 | 0.00 | 94 | 1014.9 |
| 20260902102949 | 22 | 246 | 0.0 | 0.0 | 0.00 | 0.00 | 0.00 | 94 | 1014.9 |
| 20260902102445 | 22 | 246 | 0.0 | 0.0 | 0.00 | 0.00 | 0.00 | 94 | 1014.7 |
| 20260902101942 | 22 | 245 | 0.0 | 0.0 | 0.00 | 0.00 | 0.00 | 94 | 1014.9 |
| 20260902101436 | 22 | 245 | 0.0 | 0.0 | 0.00 | 0.00 | 0.00 | 94 | 1014.7 |
| 20260902100935 | 22 | 245 | 0.0 | 0.0 | 0.00 | 0.00 | 0.00 | 94 | 1014.9 |
| 20260902100435 | 22 | 246 | 0.0 | 0.0 | 0.00 | 0.00 | 0.00 | 94 | 1014.8 |
| 20260902095930 | 22 | 246 | 0.0 | 0.0 | 0.00 | 0.00 | 0.00 | 94 | 1014.7 |
| 20260902095425 | 22 | 246 | 0.0 | 0.0 | 0.00 | 0.00 | 0.00 | 94 | 1014.6 |
| 20260902094924 | 23 | 246 | 0.0 | 0.0 | 0.00 | 0.00 | 0.00 | 94 | 1014.9 |
| 20260902094420 | 23 | 246 | 0.0 | 0.0 | 0.00 | 0.00 | 0.00 | 94 | 1014.6 |
| 20260902093915 | 23 | 246 | 0.0 | 0.0 | 0.00 | 0.00 | 0.00 | 94 | 1014.6 |
| 20260902093409 | 22 | 246 | 0.0 | 0.0 | 0.00 | 0.00 | 0.00 | 94 | 1014.8 |
| 20260902092908 | 23 | 246 | 0.0 | 0.0 | 0.00 | 0.00 | 0.00 | 94 | 1014.8 |
| 20260902092405 | 23 | 246 | 0.0 | 0.0 | 0.00 | 0.00 | 0.00 | 94 | 1014.9 |
| 20260902091905 | 23 | 246 | 0.0 | 0.0 | 0.00 | 0.00 | 0.00 | 94 | 1014.8 |
| 20260902091400 | 23 | 246 | 0.0 | 0.0 | 0.00 | 0.00 | 0.00 | 94 | 1014.7 |
| 20260902090857 | 23 | 246 | 0.0 | 0.0 | 0.00 | 0.00 | 0.00 | 94 | 1014.6 |
| 20260902090356 | 23 | 246 | 0.0 | 0.0 | 0.00 | 0.00 | 0.00 | 94 | 1014.6 |
| 20260902085855 | 23 | 246 | 0.0 | 0.0 | 0.00 | 0.00 | 0.00 | 94 | 1014.5 |
| 20260902085350 | 23 | 246 | 0.0 | 0.0 | 0.00 | 0.00 | 0.00 | 94 | 1014.7 |
| 20260902084846 | 23 | 246 | 0.0 | 0.0 | 0.00 | 0.00 | 0.00 | 94 | 1014.3 |
| 20260902084343 | 23 | 246 | 0.0 | 0.0 | 0.00 | 0.00 | 0.00 | 94 | 1014.5 |
| 20260902083838 | 23 | 246 | 0.0 | 0.0 | 0.00 | 0.00 | 0.00 | 94 | 1014.1 |
| 20260902083337 | 23 | 246 | 0.0 | 0.0 | 0.00 | 0.00 | 0.00 | 93 | 1014.0 |
| 20260902082833 | 23 | 246 | 0.0 | 0.0 | 0.00 | 0.00 | 0.00 | 93 | 1014.1 |
| 20260902082329 | 23 | 246 | 0.0 | 0.0 | 0.00 | 0.00 | 0.00 | 93 | 1014.0 |
| 20260902081825 | 23 | 246 | 0.0 | 0.0 | 0.00 | 0.00 | 0.00 | 93 | 1014.1 |
| 20260902081320 | 23 | 246 | 0.0 | 0.0 | 0.00 | 0.00 | 0.00 | 93 | 1013.9 |
| 20260902080815 | 23 | 246 | 0.0 | 0.0 | 0.00 | 0.00 | 0.00 | 93 | 1013.8 |
| 20260902080312 | 23 | 246 | 0.0 | 0.0 | 0.00 | 0.00 | 0.00 | 93 | 1013.9 |
| 20260902075811 | 23 | 246 | 0.0 | 0.0 | 0.00 | 0.00 | 0.00 | 93 | 1013.9 |
| 20260902075307 | 23 | 246 | 0.0 | 0.0 | 0.00 | 0.00 | 0.00 | 93 | 1013.7 |
| 20260902074802 | 23 | 246 | 0.0 | 0.0 | 0.00 | 0.00 | 0.00 | 92 | 1013.8 |
| 20260902074257 | 23 | 246 | 0.0 | 0.0 | 0.00 | 0.00 | 0.00 | 92 | 1013.9 |
| 20260902073752 | 23 | 246 | 0.0 | 0.0 | 0.00 | 0.00 | 0.00 | 92 | 1013.8 |
| 20260902073248 | 23 | 246 | 0.0 | 0.0 | 0.00 | 0.00 | 0.00 | 92 | 1013.8 |
| 20260902072744 | 23 | 246 | 0.0 | 0.0 | 0.00 | 0.00 | 0.00 | 92 | 1013.8 |
| 20260902072240 | 23 | 246 | 0.0 | 0.0 | 0.00 | 0.00 | 0.00 | 92 | 1013.9 |
| 20260902071736 | 23 | 246 | 0.0 | 0.0 | 0.00 | 0.00 | 0.00 | 92 | 1013.8 |
| 20260902071231 | 23 | 246 | 0.0 | 0.0 | 0.00 | 0.00 | 0.00 | 91 | 1013.9 |
| 20260902070728 | 24 | 246 | 0.0 | 0.0 | 0.00 | 0.00 | 0.00 | 91 | 1013.8 |
| 20260902070226 | 24 | 246 | 0.0 | 1.6 | 0.00 | 0.00 | 0.00 | 91 | 1013.6 |
| 20260902065726 | 24 | 246 | 0.0 | 0.0 | 0.00 | 0.00 | 0.00 | 91 | 1013.6 |
| 20260902065221 | 24 | 246 | 0.0 | 0.0 | 0.00 | 0.00 | 0.00 | 91 | 1013.6 |
| 20260902064717 | 24 | 246 | 0.0 | 0.0 | 0.00 | 0.00 | 0.00 | 91 | 1013.6 |
| 20260902064212 | 24 | 246 | 0.0 | 0.0 | 0.00 | 0.00 | 0.00 | 91 | 1013.6 |
| 20260902063708 | 24 | 246 | 0.0 | 1.6 | 0.00 | 0.00 | 0.00 | 90 | 1013.4 |
| 20260902063202 | 24 | 246 | 0.0 | 1.6 | 0.00 | 0.00 | 0.00 | 90 | 1013.7 |
| 20260902062701 | 24 | 246 | 0.0 | 0.0 | 0.00 | 0.00 | 0.00 | 90 | 1013.8 |
| 20260902062157 | 24 | 246 | 0.0 | 0.0 | 0.00 | 0.00 | 0.00 | 90 | 1013.8 |
| 20260902061655 | 24 | 246 | 0.0 | 0.0 | 0.00 | 0.00 | 0.00 | 90 | 1013.9 |
| 20260902061151 | 25 | 246 | 0.0 | 0.0 | 0.00 | 0.00 | 0.00 | 90 | 1013.7 |
| 20260902060648 | 25 | 246 | 0.0 | 0.0 | 0.00 | 0.00 | 0.00 | 89 | 1013.8 |
| 20260902060144 | 25 | 246 | 0.0 | 0.0 | 0.00 | 0.00 | 0.00 | 89 | 1013.9 |
| 20260902055639 | 25 | 246 | 0.0 | 0.0 | 0.00 | 0.00 | 0.00 | 88 | 1013.9 |
| 20260902055135 | 25 | 246 | 0.0 | 0.0 | 0.00 | 0.00 | 0.00 | 88 | 1014.0 |
| 20260902054630 | 25 | 246 | 0.0 | 0.0 | 0.00 | 0.00 | 0.00 | 88 | 1013.8 |
| 20260902054126 | 25 | 246 | 0.0 | 0.0 | 0.00 | 0.00 | 0.00 | 87 | 1013.9 |
| 20260902053620 | 25 | 246 | 0.0 | 0.0 | 0.00 | 0.00 | 0.00 | 87 | 1013.9 |
| 20260902053115 | 25 | 246 | 0.0 | 0.0 | 0.00 | 0.00 | 0.00 | 87 | 1013.8 |
| 20260902052609 | 25 | 246 | 0.0 | 1.6 | 0.00 | 0.00 | 0.00 | 87 | 1013.7 |
| 20260902052105 | 25 | 246 | 0.0 | 0.0 | 0.00 | 0.00 | 0.00 | 87 | 1014.0 |
| 20260902051604 | 25 | 246 | 0.0 | 1.6 | 0.00 | 0.00 | 0.00 | 87 | 1013.9 |
| 20260902051104 | 25 | 246 | 0.0 | 1.6 | 0.00 | 0.00 | 0.00 | 86 | 1013.8 |
| 20260902050558 | 25 | 246 | 0.0 | 0.0 | 0.00 | 0.00 | 0.00 | 86 | 1013.9 |
| 20260902050053 | 25 | 246 | 0.0 | 0.0 | 0.00 | 0.00 | 0.00 | 86 | 1013.8 |
| 20260902045549 | 25 | 246 | 0.0 | 0.0 | 0.00 | 0.00 | 0.00 | 86 | 1013.7 |
| 20260902045045 | 25 | 246 | 0.0 | 0.0 | 0.00 | 0.00 | 0.00 | 86 | 1013.6 |
| 20260902044545 | 25 | 246 | 0.0 | 0.0 | 0.00 | 0.00 | 0.00 | 85 | 1013.5 |
| 20260902044041 | 25 | 246 | 0.0 | 0.0 | 0.00 | 0.00 | 0.00 | 85 | 1013.5 |
| 20260902043536 | 25 | 246 | 0.0 | 0.0 | 0.00 | 0.00 | 0.00 | 85 | 1013.5 |
| 20260902043031 | 26 | 246 | 0.0 | 1.6 | 0.00 | 0.00 | 0.00 | 85 | 1013.7 |
| 20260902042530 | 26 | 246 | 0.0 | 0.0 | 0.00 | 0.00 | 0.00 | 85 | 1013.7 |
| 20260902042025 | 26 | 246 | 1.6 | 1.6 | 0.00 | 0.00 | 0.00 | 84 | 1013.7 |
| 20260902041520 | 26 | 246 | 0.0 | 1.6 | 0.00 | 0.00 | 0.00 | 84 | 1013.9 |
| 20260902041015 | 26 | 246 | 0.0 | 1.6 | 0.00 | 0.00 | 0.00 | 84 | 1013.8 |
| 20260902040514 | 26 | 246 | 0.0 | 0.0 | 0.00 | 0.00 | 0.00 | 84 | 1013.6 |
| 20260902040009 | 26 | 246 | 0.0 | 0.0 | 0.00 | 0.00 | 0.00 | 84 | 1013.7 |
| 20260902035502 | 26 | 246 | 0.0 | 0.0 | 0.00 | 0.00 | 0.00 | 83 | 1013.6 |
| 20260902034956 | 26 | 246 | 0.0 | 0.0 | 0.00 | 0.00 | 0.00 | 83 | 1013.9 |
| 20260902034451 | 26 | 246 | 0.0 | 0.0 | 0.00 | 0.00 | 0.00 | 83 | 1014.0 |
| 20260902033951 | 26 | 246 | 0.0 | 0.0 | 0.00 | 0.00 | 0.00 | 82 | 1013.8 |
| 20260902033450 | 26 | 246 | 0.0 | 0.0 | 0.00 | 0.00 | 0.00 | 82 | 1013.9 |
| 20260902032949 | 26 | 246 | 0.0 | 0.0 | 0.00 | 0.00 | 0.00 | 82 | 1013.6 |
| 20260902032444 | 27 | 246 | 0.0 | 0.0 | 0.00 | 0.00 | 0.00 | 82 | 1013.9 |
| 20260902031939 | 27 | 246 | 0.0 | 0.0 | 0.00 | 0.00 | 0.00 | 81 | 1013.8 |
| 20260902031434 | 27 | 246 | 0.0 | 0.0 | 0.00 | 0.00 | 0.00 | 81 | 1013.8 |
| 20260902030931 | 27 | 246 | 0.0 | 0.0 | 0.00 | 0.00 | 0.00 | 81 | 1013.6 |
| 20260902030430 | 27 | 246 | 0.0 | 0.0 | 0.00 | 0.00 | 0.00 | 80 | 1013.7 |
| 20260902025929 | 27 | 246 | 0.0 | 1.6 | 0.00 | 0.00 | 0.00 | 80 | 1013.5 |
| 20260902025425 | 27 | 246 | 0.0 | 0.0 | 0.00 | 0.00 | 0.00 | 79 | 1013.5 |
| 20260902024920 | 27 | 246 | 0.0 | 0.0 | 0.00 | 0.00 | 0.00 | 78 | 1013.6 |
| 20260902024415 | 27 | 246 | 0.0 | 0.0 | 0.00 | 0.00 | 0.00 | 78 | 1013.8 |
| 20260902023910 | 27 | 246 | 0.0 | 0.0 | 0.00 | 0.00 | 0.00 | 77 | 1013.5 |
| 20260902023406 | 28 | 245 | 0.0 | 1.6 | 0.00 | 0.00 | 0.00 | 76 | 1013.7 |
| 20260902022905 | 28 | 257 | 0.0 | 0.0 | 0.00 | 0.00 | 0.00 | 76 | 1013.7 |
| 20260902022400 | 28 | 257 | 0.0 | 0.0 | 0.00 | 0.00 | 0.00 | 75 | 1013.7 |
| 20260902021856 | 28 | 257 | 0.0 | 1.6 | 0.00 | 0.00 | 0.00 | 75 | 1013.6 |
| 20260902021355 | 28 | 257 | 0.0 | 0.0 | 0.00 | 0.00 | 0.00 | 74 | 1013.6 |
| 20260902020852 | 28 | 257 | 0.0 | 0.0 | 0.00 | 0.00 | 0.00 | 74 | 1013.8 |
| 20260902020348 | 28 | 257 | 0.0 | 0.0 | 0.00 | 0.00 | 0.00 | 73 | 1013.7 |
| 20260902015843 | 28 | 257 | 0.0 | 0.0 | 0.00 | 0.00 | 0.00 | 73 | 1013.7 |
| 20260902015338 | 28 | 257 | 0.0 | 0.0 | 0.00 | 0.00 | 0.00 | 72 | 1013.6 |
| 20260902014834 | 28 | 257 | 0.0 | 0.0 | 0.00 | 0.00 | 0.00 | 72 | 1013.6 |
| 20260902014331 | 28 | 257 | 0.0 | 0.0 | 0.00 | 0.00 | 0.00 | 71 | 1013.7 |
| 20260902013829 | 28 | 257 | 0.0 | 0.0 | 0.00 | 0.00 | 0.00 | 71 | 1013.6 |
| 20260902013325 | 28 | 257 | 0.0 | 0.0 | 0.00 | 0.00 | 0.00 | 71 | 1013.5 |
| 20260902012820 | 28 | 257 | 0.0 | 0.0 | 0.00 | 0.00 | 0.00 | 71 | 1013.4 |
| 20260902012316 | 29 | 257 | 0.0 | 0.0 | 0.00 | 0.00 | 0.00 | 70 | 1013.5 |
| 20260902011812 | 29 | 257 | 0.0 | 0.0 | 0.00 | 0.00 | 0.00 | 69 | 1013.5 |